Dewpoint
-5 -2 1 -1 -2 -0 0 -0 -1 -1 -2 -3 -3 -4 -3 1 8 9 11 11 13 13 13 14 14 14 14 15 16 17 17 17 16 16 16 16 16 15 16 15 16 13 16 16
-4 -4 -3 -2 -1 -1 -1 -2 -2 -2 -4 -5 -4 -3 -3 -3 3 6 10 11 11 12 13 14 14 14 14 15 16 17 17 16 14 16 16 16 15 15 15 15 15 13 14 14
-7 -7 -6 -3 -2 -1 -4 -4 -3 -2 -4 -5 -2 -3 -2 -4 -0 4 6 10 11 11 12 14 14 14 14 15 16 16 16 16 14 16 16 16 16 16 16 16 15 14 12 13
-7 -9 -6 -6 -5 -4 -6 -9 -7 -5 -3 -1 -4 -1 -3 -4 -4 -1 3 7 9 11 11 13 14 14 14 14 16 16 13 14 14 14 16 16 16 16 16 15 15 14 13 12
-6 -5 -6 -7 -8 -9 -8 -9 -6 -6 -4 -3 -5 -3 -4 -5 -3 -4 -4 -1 6 9 10 12 13 14 14 14 15 16 15 13 15 14 15 16 15 15 16 16 16 16 15 11
-3 -4 -6 -8 -10 -10 -9 -7 -6 -6 -4 -2 -5 -5 -5 -3 -4 -4 -6 -3 1 7 9 11 12 13 14 14 15 16 15 12 13 13 14 14 16 15 16 16 16 16 16 15
-2 -3 -5 -6 -6 -7 -6 -6 -5 -2 -2 -2 -5 -4 -6 -7 -7 -7 -5 -2 1 5 8 10 12 13 14 14 15 16 15 12 12 13 13 13 14 15 16 15 16 15 15 15
-1 -0 -4 -5 -6 -6 -5 -7 -5 0 -1 -1 -2 -2 -5 -8 -9 -4 -1 -1 1 6 7 10 12 13 14 14 15 15 15 12 12 13 13 13 13 16 16 15 14 16 16 15
0 -1 -5 -5 -6 -7 -5 -4 -8 -7 -6 -3 -3 -3 -5 -7 -5 -2 1 -3 2 5 7 8 11 13 14 14 15 15 15 11 11 12 13 13 13 14 16 15 13 16 16 16
-1 2 -3 -4 -5 -6 -6 -7 -6 -6 0 2 0 1 -2 -4 -2 -2 1 2 4 6 6 8 10 12 13 14 15 15 15 12 12 14 15 15 12 13 15 14 14 15 16 16
-3 -1 -0 -2 -1 -2 -3 -4 -5 -4 -1 2 3 -0 -4 -4 -3 -0 -0 1 4 6 7 8 10 11 13 14 14 15 15 16 15 14 16 16 17 13 13 15 13 14 14 16
-2 -2 1 0 -2 -3 -3 -2 -2 1 3 1 1 0 -5 -5 -3 -1 0 2 3 6 8 9 11 12 12 14 14 15 15 15 16 15 13 13 16 16 15 13 14 14 14 15
-1 -0 2 1 -1 -1 -1 -1 -2 -2 -2 2 3 0 -4 -5 -4 -3 1 2 6 5 8 9 10 12 13 14 14 14 15 15 16 16 14 14 15 15 16 16 15 13 13 13
2 1 2 3 2 1 3 1 0 -0 1 1 0 0 -2 -2 -2 -4 -1 4 5 7 8 8 10 12 13 14 15 15 15 15 16 16 15 15 13 14 14 16 15 15 12 13
2 5 4 3 2 2 2 2 1 2 1 2 1 0 -1 -2 -1 1 5 8 7 7 8 10 11 12 14 15 16 16 15 15 16 16 17 16 15 14 14 14 13 13 13 12
1 5 5 6 3 3 3 2 2 2 2 1 0 1 -2 1 8 6 8 11 12 13 14 14 12 13 14 15 16 16 16 16 16 17 17 16 14 13 12 12 12 13 12 10
2 3 4 6 3 3 6 4 3 2 1 1 3 1 3 4 10 11 12 13 14 14 16 17 17 17 14 14 15 15 16 16 16 16 16 17 15 12 12 12 12 13 12 10
2 3 3 5 4 7 2 0 2 3 2 2 4 4 9 9 11 12 13 14 14 15 15 16 18 18 17 15 15 16 16 14 16 18 17 17 17 16 13 12 12 12 13 11
-1 1 3 4 3 2 0 3 6 7 8 8 10 10 10 11 12 12 12 12 13 13 13 13 13 16 17 14 16 17 17 17 17 17 17 17 17 17 17 14 12 12 13 13
1 2 4 4 5 5 7 4 4 4 9 7 7 9 9 10 15 11 12 12 12 12 12 12 12 13 15 17 17 17 18 18 18 18 18 18 17 18 18 18 16 14 14 14
2 2 3 2 3 2 4 2 4 9 9 8 7 8 8 10 11 11 10 11 12 11 10 10 10 13 9 13 17 18 18 18 18 17 18 17 17 17 18 18 18 17 15 17
4 4 3 4 6 6 3 2 7 8 7 6 6 7 8 8 8 10 10 10 10 10 10 10 10 7 8 7 11 15 9 11 12 15 14 14 15 15 17 18 18 17 17 16
3 4 5 4 3 2 2 5 4 5 6 6 6 5 6 6 7 7 8 9 11 11 9 8 8 9 8 4 5 13 14 7 7 7 6 7 8 10 8 10 17 18 18 17
-1 -1 2 2 -1 -2 -1 -1 0 4 4 5 4 4 5 5 5 5 6 7 8 9 10 8 7 8 8 7 10 7 5 5 6 6 8 7 7 7 7 8 12 18 17 17
2 2 3 3 1 4 3 2 4 4 4 5 4 4 4 5 5 5 5 5 6 7 8 8 8 9 8 8 8 12 11 5 5 4 6 6 8 9 8 8 9 12 16 17
4 5 5 6 5 7 7 6 6 6 6 6 6 6 6 5 5 5 5 5 5 6 7 8 9 9 9 9 8 7 9 11 14 10 8 9 7 9 10 10 10 11 11 10
Wind_Speed
13 11 14 16 8 8 8 12 13 12 9 11 13 15 11 4 14 15 18 20 21 21 20 21 22 22 25 24 23 22 21 21 20 19 18 17 17 16 15 14 15 18 16 13
7 16 17 3 6 10 10 12 13 7 4 12 13 15 16 9 12 16 18 20 21 21 22 23 24 23 25 26 25 24 23 23 24 20 19 17 16 16 16 16 16 19 20 17
15 3 7 9 12 11 12 11 12 11 13 10 10 18 5 7 12 12 16 19 21 23 24 25 26 26 24 25 26 25 26 24 24 22 19 18 15 18 19 18 16 19 22 21
10 12 7 7 9 10 13 5 5 8 9 10 7 13 13 1 4 7 12 19 22 24 24 25 26 27 26 25 24 25 26 27 26 26 21 22 19 17 15 18 16 17 21 24
2 6 9 15 16 9 10 3 7 10 10 10 15 8 5 4 7 6 4 10 20 23 26 26 28 27 26 25 24 24 25 26 25 27 24 22 21 18 18 19 19 18 18 23
13 4 7 7 4 9 3 10 12 9 10 12 6 5 6 7 3 6 7 3 14 23 25 26 25 24 25 24 24 24 26 27 27 27 27 25 21 20 19 16 19 19 20 21
11 16 15 14 12 10 10 12 9 8 9 5 5 7 12 12 7 11 12 6 14 22 25 26 27 27 26 27 26 25 27 29 29 28 28 28 26 23 20 19 16 17 18 20
5 7 8 12 19 14 18 16 10 4 5 2 6 5 4 5 14 12 9 6 16 24 26 28 28 28 28 29 28 27 27 29 29 28 28 27 25 22 21 21 16 19 13 16
3 3 6 5 7 15 10 11 15 16 13 9 10 3 15 5 2 8 4 7 17 26 27 28 27 27 27 29 31 31 29 29 28 29 28 28 26 25 21 23 23 17 16 14
2 6 1 7 7 6 13 7 8 11 13 13 3 4 7 4 8 9 5 5 14 21 24 25 26 25 26 27 28 29 30 31 29 27 26 25 25 25 23 23 26 22 18 18
10 9 2 5 11 7 7 11 10 10 8 11 10 2 7 6 8 10 4 3 9 18 22 23 24 25 24 24 27 28 29 29 30 29 27 25 23 23 25 23 23 27 25 19
9 7 10 12 3 5 11 12 12 9 7 8 9 10 4 2 6 9 8 3 4 12 18 20 21 22 24 25 26 28 28 29 29 29 31 28 25 23 22 25 24 24 26 26
3 7 9 13 10 4 7 9 12 15 15 17 11 11 5 2 9 8 6 4 2 7 13 16 18 21 22 23 24 25 27 28 27 28 29 29 26 26 24 22 22 24 26 28
3 13 11 13 16 14 11 15 14 12 12 15 16 16 18 10 9 9 3 4 4 2 8 13 16 18 20 21 22 23 23 24 26 26 29 28 28 26 24 22 21 21 23 26
5 13 15 16 18 18 18 19 18 18 16 18 19 20 12 12 5 7 5 6 6 5 3 2 7 12 15 18 19 21 21 22 23 25 25 27 26 24 23 24 22 21 22 24
10 11 12 17 18 20 22 19 18 20 19 19 19 19 15 6 5 5 4 5 5 7 8 7 3 4 8 13 15 16 18 19 21 22 24 25 27 26 24 23 23 21 21 22
13 12 13 20 18 20 19 15 22 23 20 17 17 13 3 3 3 5 5 6 7 8 8 8 7 4 4 8 12 14 15 16 18 21 20 21 26 28 26 23 23 23 22 22
15 15 12 15 15 21 18 17 14 14 16 13 10 12 8 4 4 8 10 10 12 13 14 15 13 11 6 2 7 10 12 13 14 14 14 15 18 24 26 26 24 23 22 22
7 10 12 13 14 17 16 6 6 8 8 9 9 9 6 4 6 10 9 10 10 11 11 13 15 17 15 5 3 6 8 10 12 12 12 13 14 16 21 26 26 25 24 22
2 4 8 12 11 14 9 12 9 7 7 14 13 11 10 5 6 7 5 5 7 8 9 11 14 15 17 13 6 6 6 7 8 8 8 8 11 14 17 20 24 25 25 24
7 8 12 12 13 10 13 17 13 12 2 14 14 15 15 11 11 11 5 3 4 5 8 9 9 7 7 14 10 10 10 9 10 11 11 9 5 4 11 15 19 22 25 21
9 7 9 5 10 14 22 10 10 5 6 9 12 13 16 16 14 10 7 6 7 7 6 8 6 4 5 5 0 5 4 2 2 5 8 6 8 8 6 13 17 22 22 23
4 5 7 7 11 18 11 5 7 8 11 12 14 16 17 17 16 15 14 15 10 12 10 9 9 3 5 7 4 4 4 0 4 5 12 21 27 24 14 31 28 26 24 23
7 6 8 14 12 19 23 23 19 10 14 18 19 20 19 20 20 19 15 12 10 11 10 13 9 8 5 5 5 2 1 2 2 8 10 11 22 22 23 18 32 21 17 26
10 9 10 14 17 17 17 19 23 25 25 30 28 24 23 23 23 21 21 19 16 14 12 12 12 14 14 12 10 7 6 5 4 4 10 12 13 15 18 20 19 17 23 29
14 9 7 11 26 24 28 30 31 32 33 32 31 30 28 26 27 25 26 24 23 21 18 15 13 13 12 10 9 12 10 7 5 6 9 10 11 12 16 17 21 21 22 18
Wind_Direction
210 231 230 242 251 325 292 297 292 294 326 318 317 305 302 218 207 212 208 200 197 196 192 193 190 192 194 199 202 202 203 203 201 203 202 207 211 213 215 209 208 210 203 208
197 232 244 278 266 258 277 282 281 314 178 319 302 297 292 251 226 219 210 207 201 194 187 192 191 192 195 198 200 203 205 206 209 206 204 210 210 214 215 216 218 213 211 209
247 52 303 214 231 251 250 271 284 295 317 275 278 287 209 242 228 233 218 213 207 198 192 192 195 194 195 201 200 203 208 208 213 204 204 203 203 207 210 213 216 218 216 215
255 254 215 223 248 244 260 268 273 284 298 301 339 303 296 32 237 216 224 212 209 204 198 195 196 197 197 201 201 202 209 211 214 213 207 208 208 213 214 213 219 217 224 221
152 210 227 240 238 232 266 202 292 290 280 291 276 268 284 142 131 92 122 214 204 202 198 195 199 199 198 197 199 200 207 211 211 218 211 216 211 217 215 213 217 217 226 225
267 239 257 253 237 221 197 256 249 253 261 268 272 288 270 143 356 315 334 232 197 192 194 196 198 197 195 197 197 198 205 212 213 218 220 224 216 212 222 216 219 223 227 231
232 231 221 225 221 192 228 250 258 228 211 250 69 287 258 308 306 321 311 277 189 184 185 187 192 192 193 196 197 198 204 212 214 219 220 222 222 221 219 221 222 217 219 224
280 167 193 194 227 226 210 241 260 275 285 323 150 263 243 318 315 317 306 207 177 178 181 186 190 191 194 196 197 199 206 210 215 218 221 222 222 219 219 223 211 222 213 215
290 193 146 211 225 229 201 235 254 279 260 264 263 256 264 249 316 16 40 170 178 177 181 186 189 193 195 198 201 202 206 211 214 216 218 222 223 217 216 223 219 206 208 209
298 276 151 108 180 203 256 341 225 226 264 268 246 259 273 339 348 356 40 156 170 178 181 186 190 194 197 201 203 204 208 213 214 212 214 216 221 221 218 225 220 214 212 204
248 237 214 203 210 217 179 226 230 295 293 294 283 282 62 326 342 348 51 131 167 183 188 192 195 196 198 198 202 205 207 209 211 213 212 211 213 219 220 220 225 223 217 214
218 273 261 270 223 269 288 268 241 242 225 239 286 289 113 40 350 339 350 88 155 189 194 200 200 199 200 201 200 205 206 209 211 213 214 217 215 211 217 220 221 222 222 220
183 239 272 258 193 183 247 249 256 276 270 275 270 263 134 208 285 306 318 8 99 174 190 194 199 202 202 206 205 205 207 208 211 212 215 216 216 217 214 221 219 223 225 225
270 265 264 281 299 323 283 285 292 277 273 262 247 248 278 247 257 287 290 342 349 155 179 191 195 202 202 203 205 205 208 208 208 211 215 216 218 221 220 219 224 223 227 227
287 274 277 280 280 282 276 278 275 272 270 269 286 287 293 271 292 298 308 326 342 25 46 159 193 205 203 203 205 205 207 206 207 209 213 215 218 217 219 222 227 229 231 231
297 283 282 273 276 275 275 267 274 272 267 268 271 272 281 341 317 295 323 352 19 22 31 28 14 232 215 205 205 206 206 206 204 210 213 214 217 218 222 224 228 232 235 234
294 279 283 271 283 286 268 266 264 265 269 259 255 266 66 225 51 27 13 29 36 35 38 35 26 19 239 218 209 205 202 200 205 214 216 214 216 219 220 222 226 230 235 237
266 276 280 278 280 264 276 280 308 291 285 315 300 293 339 333 100 65 48 59 55 51 48 48 45 35 9 205 209 194 194 201 200 205 211 214 217 221 224 226 229 230 234 237
281 268 269 263 261 273 276 20 358 344 56 29 341 356 30 32 150 84 69 62 61 60 54 44 41 40 35 10 181 180 175 183 187 195 202 207 212 221 224 227 229 230 231 235
316 273 276 275 277 282 36 2 338 281 223 17 3 6 347 306 260 95 84 85 79 55 41 40 33 40 49 46 74 117 142 149 157 171 181 195 207 218 227 228 224 224 226 230
307 297 266 263 260 266 13 351 326 246 357 4 1 358 353 356 345 333 310 316 326 356 354 347 353 356 30 62 75 101 109 140 153 150 154 157 159 265 246 235 237 228 225 221
297 315 293 291 292 275 8 347 354 14 343 350 348 353 345 339 337 337 327 321 338 337 347 357 346 332 328 339 64 108 46 36 66 142 122 104 104 59 300 273 247 239 230 226
279 349 314 308 312 319 338 325 321 308 310 323 326 324 324 322 327 326 322 319 316 306 304 304 307 330 1 23 21 169 207 139 277 263 285 277 270 248 312 292 286 235 223 217
287 291 282 303 291 312 308 299 294 285 305 310 308 307 303 300 301 303 308 311 302 281 288 281 271 293 320 331 328 334 79 136 254 307 262 248 238 252 250 277 270 248 228 227
304 309 288 281 276 330 299 311 310 305 297 297 296 292 289 287 284 284 284 285 286 283 278 270 267 268 258 268 277 272 263 252 241 252 251 250 248 241 239 256 273 282 262 255
0 353 316 304 314 312 303 302 297 295 293 291 290 290 285 277 273 275 276 277 276 275 275 276 276 269 266 262 249 246 248 241 226 238 249 261 273 269 269 271 268 270 272 274
Height
1527 1527 1523 1515 1512 1518 1524 1524 1523 1514 1512 1517 1509 1503 1495 1497 1503 1505 1507 1510 1514 1519 1525 1529 1533 1537 1541 1545 1549 1552 1555 1558 1561 1564 1568 1571 1573 1575 1577 1578 1579 1580 1583 1585
1526 1523 1512 1516 1518 1521 1521 1523 1520 1513 1514 1514 1505 1501 1491 1490 1493 1496 1502 1505 1509 1514 1519 1525 1529 1532 1536 1540 1544 1547 1551 1554 1556 1561 1565 1569 1571 1573 1575 1576 1577 1578 1580 1583
1518 1511 1516 1518 1519 1522 1519 1520 1518 1522 1513 1504 1506 1496 1487 1483 1487 1490 1493 1498 1503 1507 1512 1519 1524 1527 1532 1536 1539 1542 1546 1550 1552 1557 1560 1564 1567 1568 1571 1573 1574 1576 1578 1581
1516 1511 1519 1519 1518 1516 1520 1510 1517 1519 1518 1519 1501 1515 1485 1480 1481 1484 1487 1491 1496 1501 1507 1512 1518 1523 1527 1531 1535 1539 1541 1545 1549 1552 1556 1558 1562 1565 1568 1570 1572 1574 1575 1578
1511 1513 1516 1517 1513 1512 1517 1512 1516 1514 1513 1511 1498 1507 1482 1477 1479 1478 1480 1483 1489 1495 1500 1507 1512 1517 1522 1527 1531 1535 1538 1541 1545 1548 1552 1554 1558 1562 1563 1566 1569 1570 1572 1574
1510 1509 1512 1508 1508 1510 1512 1514 1508 1508 1506 1518 1491 1503 1482 1475 1480 1477 1476 1479 1482 1488 1495 1502 1508 1514 1519 1524 1528 1531 1533 1537 1540 1543 1547 1549 1553 1558 1558 1561 1563 1567 1569 1570
1502 1501 1504 1507 1510 1510 1512 1511 1516 1517 1512 1508 1493 1502 1486 1471 1471 1472 1473 1474 1478 1483 1490 1496 1503 1509 1514 1518 1522 1526 1528 1531 1535 1539 1542 1545 1548 1551 1555 1556 1560 1562 1564 1567
1505 1506 1497 1499 1502 1501 1505 1502 1507 1526 1511 1498 1495 1502 1478 1467 1469 1468 1469 1470 1474 1480 1485 1491 1498 1504 1508 1512 1516 1520 1522 1526 1530 1533 1536 1540 1544 1547 1550 1552 1557 1558 1561 1562
1503 1501 1495 1497 1495 1498 1499 1510 1490 1498 1487 1504 1486 1480 1467 1462 1465 1466 1466 1470 1473 1476 1482 1488 1494 1499 1503 1507 1509 1513 1516 1521 1524 1528 1532 1535 1538 1542 1546 1547 1551 1555 1558 1560
1498 1508 1488 1491 1497 1497 1496 1492 1503 1497 1521 1519 1486 1491 1483 1471 1468 1467 1468 1469 1472 1476 1480 1485 1490 1495 1498 1501 1506 1509 1512 1515 1519 1524 1527 1530 1533 1537 1541 1543 1547 1551 1555 1556
1495 1499 1494 1492 1491 1486 1498 1498 1494 1488 1490 1502 1501 1483 1465 1470 1467 1467 1468 1472 1471 1475 1479 1483 1487 1490 1493 1497 1501 1504 1508 1511 1515 1518 1523 1527 1530 1533 1536 1539 1542 1545 1550 1553
1496 1491 1496 1487 1476 1482 1480 1480 1480 1495 1494 1487 1491 1484 1458 1466 1467 1468 1468 1471 1472 1473 1476 1479 1483 1486 1489 1491 1495 1498 1502 1506 1509 1513 1517 1520 1525 1529 1531 1534 1538 1541 1544 1548
1498 1494 1501 1488 1476 1483 1486 1479 1479 1476 1474 1486 1493 1481 1457 1463 1465 1464 1467 1469 1471 1471 1473 1475 1478 1481 1484 1488 1491 1494 1497 1501 1505 1507 1511 1515 1519 1523 1527 1530 1533 1536 1539 1542
1505 1492 1494 1499 1484 1478 1492 1486 1481 1482 1485 1478 1473 1470 1461 1458 1461 1462 1464 1470 1471 1470 1470 1471 1474 1476 1478 1482 1485 1489 1493 1497 1500 1503 1506 1510 1514 1518 1523 1527 1529 1532 1534 1536
1501 1501 1492 1487 1486 1484 1485 1485 1483 1485 1479 1485 1471 1465 1458 1456 1457 1462 1467 1469 1470 1471 1471 1472 1472 1474 1475 1477 1479 1483 1488 1491 1495 1498 1501 1506 1510 1515 1518 1521 1524 1528 1530 1531
1500 1504 1496 1497 1488 1484 1483 1479 1479 1476 1474 1473 1471 1470 1460 1464 1469 1469 1470 1471 1470 1470 1471 1472 1473 1474 1474 1475 1476 1480 1483 1487 1491 1494 1496 1501 1505 1509 1513 1516 1519 1522 1524 1527
1506 1502 1501 1497 1487 1484 1487 1480 1474 1467 1463 1463 1472 1460 1463 1465 1470 1473 1474 1474 1473 1472 1471 1472 1472 1473 1474 1474 1474 1476 1479 1482 1485 1489 1493 1497 1500 1504 1508 1512 1515 1518 1520 1523
1504 1506 1503 1502 1497 1505 1475 1468 1465 1469 1467 1463 1466 1466 1470 1470 1473 1475 1476 1477 1476 1477 1477 1475 1473 1472 1471 1473 1475 1474 1476 1478 1483 1487 1491 1494 1498 1501 1504 1508 1511 1514 1516 1518
1502 1503 1502 1503 1496 1481 1475 1476 1483 1486 1479 1484 1482 1478 1476 1477 1477 1477 1478 1479 1479 1479 1479 1479 1477 1473 1471 1470 1472 1474 1475 1477 1479 1483 1486 1489 1492 1497 1499 1501 1505 1509 1511 1513
1504 1504 1505 1496 1499 1502 1493 1488 1487 1485 1486 1490 1488 1486 1483 1482 1480 1471 1479 1480 1479 1481 1480 1479 1481 1479 1475 1474 1474 1475 1476 1478 1479 1481 1483 1485 1486 1489 1494 1497 1497 1499 1503 1506
1504 1502 1501 1492 1492 1484 1492 1488 1488 1491 1497 1497 1497 1493 1490 1485 1487 1485 1480 1480 1483 1481 1479 1480 1481 1482 1479 1477 1478 1476 1478 1478 1478 1479 1478 1479 1480 1486 1491 1494 1498 1498 1497 1499
1512 1507 1501 1498 1500 1502 1498 1492 1498 1504 1501 1501 1499 1497 1496 1492 1489 1486 1484 1483 1481 1481 1480 1480 1481 1482 1480 1477 1477 1479 1476 1478 1477 1479 1480 1479 1476 1480 1490 1494 1493 1494 1495 1492
1514 1512 1512 1510 1498 1501 1502 1505 1504 1504 1503 1501 1499 1497 1495 1492 1489 1487 1483 1481 1475 1479 1478 1479 1483 1482 1477 1472 1477 1476 1476 1477 1476 1476 1475 1474 1476 1476 1479 1486 1490 1487 1482 1483
1512 1512 1513 1510 1503 1501 1502 1503 1502 1501 1501 1499 1498 1495 1494 1491 1488 1486 1484 1481 1480 1480 1478 1478 1477 1478 1477 1476 1478 1477 1474 1474 1474 1472 1470 1468 1470 1468 1470 1479 1469 1447 1460 1465
1515 1515 1510 1506 1501 1503 1501 1500 1501 1499 1498 1496 1493 1491 1489 1487 1485 1484 1482 1481 1479 1479 1478 1477 1476 1476 1474 1473 1476 1476 1474 1472 1470 1470 1469 1466 1465 1466 1467 1470 1467 1467 1466 1460
1522 1522 1519 1510 1510 1509 1503 1500 1499 1495 1492 1489 1485 1482 1481 1480 1478 1478 1475 1474 1473 1473 1472 1472 1471 1471 1471 1471 1470 1470 1472 1469 1468 1468 1468 1465 1462 1463 1464 1464 1464 1465 1466 1461